Weather in Repjevka

Russia / Voronezh Oblast     51°04′34″N   38°38′27″E
temp.,
°C
wind,
m/s
gust,
m/s
humid.,
%
clouds,
%
prec.,
mm/h
press.,
hPa
HPBL,
m
16 october, sat
sat1600:00+6ssw22606 0.0 102410
03:00+5s22615 0.0 102314
06:00+4s226573 0.0 102315
09:00+8s34565 0.0 1022194
12:00+13s454419 0.0 1021867
15:00+14s3438100 0.0 10191193
18:00+12s2244100 0.0 101825
21:00+11s2350100 0.0 101851
17 october, sun
sun1700:00+11ssw2359100 0.0 101877
03:00+10wnw1161100 0.0 101713
06:00+10nnw2254100 0.0 101825
09:00+11nnw225415 0.0 1018217
12:00+14wnw114518 0.0 1017737
15:00+15wnw33475 0.0 10161270
18:00+11nnw22615 0.0 101625
21:00+9nw22728 0.0 101720
18 october, mon
mon1800:00+7nw227146 0.0 101722
03:00+6wnw237580 0.0 101747
06:00+4wnw2389100 0.0 101643
09:00+7wnw3575100 0.0 1017243
12:00+10w564991 0.0 10161056
15:00+11w5644100 0.0 10141547
18:00+8w3555100 0.0 101598
21:00+7w3760100 0.0 1015186
19 october, tue
tue1900:00+7w3764100 0.0 1015369
03:00+7w4671100 0.0 1014895
06:00+6wnw3679100 0.3 1015664
09:00+6nw47705 0.3 1016498
12:00+9nw56455 0.0 10161728
15:00+10nw563750 0.0 10162103
18:00+6nnw49586 0.0 1018278
21:00+3wnw367431 0.0 1019137
20 october, wed
wed2000:00+3nw487617 0.0 1020306
03:00+1nw38915 0.0 1021228
06:00−1nw38865 0.0 1023222
09:00+2nw58795 0.0 1025457
12:00+6nnw565483 0.0 10261322
15:00+7nw454687 0.0 10251540
18:00+3nw2261100 0.0 102714
21:00+2ssw22659 0.0 102714